START_TIME,STEP,MOV.,M35,t_acc.,PL05,t_acc.,PL06,t_acc.,PL07,t_acc.
1980-11-14 18:00:12.480 ,6,0,0.,4.8,0.,4.8,0.,4.8,0.,4.8
1980-11-14 18:00:17.280 ,6,0,0.,4.8,0.,4.8,0.,4.8,0.,4.8
1980-11-14 18:00:22.080 ,6,0,0.,4.8,0.,4.8,0.,4.8,0.,4.8
1980-11-14 18:00:26.880 ,6,0,0.,4.8,0.,4.8,0.,4.8,0.,4.8
1980-11-14 18:00:31.680 ,6,0,0.,4.8,1.,4.8,0.,4.8,0.,4.8
1980-11-14 18:00:36.480 ,5,0,0.,4.8,0.,4.8,0.,4.8,0.,4.8
1980-11-14 18:00:41.280 ,5,0,0.,4.8,0.,4.8,0.,4.8,0.,4.8
1980-11-14 18:00:46.080 ,5,0,0.,4.8,0.,4.8,0.,4.8,0.,4.8
1980-11-14 18:00:50.880 ,5,0,0.,4.8,1.,4.8,0.,4.8,0.,4.8
1980-11-14 18:00:55.680 ,5,0,0.,4.8,3.,4.8,0.,4.8,0.,4.8
1980-11-14 18:01:00.480 ,5,0,0.,4.8,0.,4.8,0.,4.8,0.,4.8
1980-11-14 18:01:05.280 ,5,0,0.,4.8,0.,4.8,0.,4.8,0.,4.8
1980-11-14 18:01:10.080 ,5,0,0.,4.8,1.,4.8,0.,4.8,0.,4.8
1980-11-14 18:01:14.880 ,5,0,0.,4.8,1.,4.8,0.,4.8,0.,4.8
1980-11-14 18:01:19.680 ,5,0,0.,4.8,0.,4.8,0.,4.8,0.,4.8
1980-11-14 18:01:24.470 ,4,0,0.,4.8,1.,4.8,0.,4.8,0.,4.8
1980-11-14 18:01:29.280 ,4,0,0.,4.8,1.,4.8,0.,4.8,0.,4.8
1980-11-14 18:01:34.080 ,4,0,0.,4.8,0.,4.8,0.,4.8,0.,4.8
1980-11-14 18:01:38.880 ,4,0,0.,4.8,0.,4.8,0.,4.8,1.,4.8
1980-11-14 18:01:43.680 ,4,0,0.,4.8,1.,4.8,1.,4.8,0.,4.8
1980-11-14 18:01:48.470 ,4,0,0.,4.8,0.,4.8,0.,4.8,0.,4.8
1980-11-14 18:01:53.280 ,4,0,0.,4.8,0.,4.8,0.,4.8,0.,4.8
1980-11-14 18:01:58.080 ,4,0,0.,4.8,1.,4.8,0.,4.8,0.,4.8
1980-11-14 18:02:02.880 ,4,0,0.,4.8,1.,4.8,0.,4.8,0.,4.8
1980-11-14 18:02:07.680 ,4,0,0.,4.8,0.,4.8,0.,4.8,0.,4.8
1980-11-14 18:02:12.470 ,3,0,0.,4.8,0.,4.8,0.,4.8,0.,4.8
1980-11-14 18:02:17.270 ,3,0,0.,4.8,0.,4.8,0.,4.8,0.,4.8
1980-11-14 18:02:22.070 ,3,0,0.,4.8,0.,4.8,1.,4.8,0.,4.8
1980-11-14 18:02:26.880 ,3,0,0.,4.8,1.,4.8,0.,4.8,0.,4.8
1980-11-14 18:02:31.680 ,3,0,0.,4.8,0.,4.8,0.,4.8,0.,4.8
1980-11-14 18:02:36.480 ,3,0,0.,4.8,0.,4.8,0.,4.8,0.,4.8
1980-11-14 18:02:41.270 ,3,0,0.,4.8,0.,4.8,0.,4.8,0.,4.8
1980-11-14 18:02:46.080 ,3,0,0.,4.8,1.,4.8,0.,4.8,0.,4.8
1980-11-14 18:02:50.880 ,3,0,0.,4.8,0.,4.8,0.,4.8,1.,4.8
1980-11-14 18:02:55.680 ,3,0,0.,4.8,0.,4.8,0.,4.8,0.,4.8
1980-11-14 18:03:00.480 ,2,0,0.,4.8,0.,4.8,0.,4.8,0.,4.8
1980-11-14 18:03:05.270 ,2,0,0.,4.8,0.,4.8,0.,4.8,0.,4.8
1980-11-14 18:03:10.080 ,2,0,0.,4.8,0.,4.8,0.,4.8,0.,4.8
1980-11-14 18:03:14.880 ,2,0,0.,4.8,0.,4.8,0.,4.8,0.,4.8
1980-11-14 18:03:19.680 ,2,0,0.,4.8,0.,4.8,0.,4.8,0.,4.8
1980-11-14 18:03:24.480 ,2,0,0.,4.8,0.,4.8,0.,4.8,0.,4.8
1980-11-14 18:03:29.270 ,2,0,0.,4.8,1.,4.8,0.,4.8,0.,4.8
1980-11-14 18:03:34.080 ,2,0,0.,4.8,2.,4.8,0.,4.8,0.,4.8
1980-11-14 18:03:38.880 ,2,0,0.,4.8,2.,4.8,0.,4.8,0.,4.8
1980-11-14 18:03:43.680 ,2,0,0.,4.8,0.,4.8,0.,4.8,1.,4.8
1980-11-14 18:03:48.480 ,1,0,0.,4.8,1.,4.8,0.,4.8,0.,4.8
1980-11-14 18:03:53.280 ,1,0,0.,4.8,0.,4.8,0.,4.8,0.,4.8
1980-11-14 18:03:58.080 ,1,0,0.,4.8,0.,4.8,0.,4.8,0.,4.8
1980-11-14 18:04:02.880 ,1,0,0.,4.8,1.,4.8,0.,4.8,0.,4.8
1980-11-14 18:04:07.680 ,1,0,0.,4.8,0.,4.8,0.,4.8,0.,4.8
1980-11-14 18:04:12.470 ,1,0,0.,4.8,0.,4.8,0.,4.8,0.,4.8
1980-11-14 18:04:17.270 ,1,0,0.,4.8,1.,4.8,0.,4.8,0.,4.8
1980-11-14 18:04:22.080 ,1,0,0.,4.8,1.,4.8,0.,4.8,0.,4.8
1980-11-14 18:04:26.880 ,1,0,0.,4.8,3.,4.8,0.,4.8,0.,4.8
1980-11-14 18:04:31.680 ,1,0,0.,4.8,2.,4.8,0.,4.8,0.,4.8
1980-11-14 18:04:36.480 ,0,0,0.,4.8,0.,4.8,0.,4.8,0.,4.8
1980-11-14 18:04:41.280 ,0,0,0.,4.8,0.,4.8,0.,4.8,0.,4.8
1980-11-14 18:04:46.080 ,0,0,0.,4.8,1.,4.8,0.,4.8,0.,4.8
1980-11-14 18:04:50.880 ,0,0,0.,4.8,0.,4.8,0.,4.8,0.,4.8
1980-11-14 18:04:55.680 ,0,0,0.,4.8,0.,4.8,0.,4.8,0.,4.8
1980-11-14 18:05:00.480 ,0,0,0.,4.8,0.,4.8,0.,4.8,0.,4.8
1980-11-14 18:05:05.280 ,0,0,0.,4.8,1.,4.8,0.,4.8,0.,4.8
1980-11-14 18:05:10.080 ,0,0,0.,4.8,0.,4.8,0.,4.8,0.,4.8
1980-11-14 18:05:14.880 ,0,0,0.,4.8,1.,4.8,0.,4.8,0.,4.8
1980-11-14 18:05:19.680 ,0,0,0.,4.8,0.,4.8,0.,4.8,0.,4.8
1980-11-14 18:05:24.480 ,0,0,0.,4.8,0.,4.8,0.,4.8,0.,4.8
1980-11-14 18:05:29.280 ,0,0,0.,4.8,0.,4.8,1.,4.8,0.,4.8
1980-11-14 18:05:34.080 ,0,0,0.,4.8,0.,4.8,0.,4.8,0.,4.8
1980-11-14 18:05:38.880 ,0,0,0.,4.8,0.,4.8,0.,4.8,0.,4.8
1980-11-14 18:05:43.680 ,0,0,0.,4.8,0.,4.8,0.,4.8,0.,4.8
1980-11-14 18:05:48.480 ,0,0,0.,4.8,0.,4.8,0.,4.8,1.,4.8
1980-11-14 18:05:53.280 ,0,0,0.,4.8,0.,4.8,0.,4.8,0.,4.8
1980-11-14 18:05:58.080 ,0,0,0.,4.8,1.,4.8,1.,4.8,1.,4.8
1980-11-14 18:06:02.880 ,0,0,0.,4.8,0.,4.8,0.,4.8,0.,4.8
1980-11-14 18:06:07.680 ,0,0,0.,4.8,1.,4.8,0.,4.8,0.,4.8
1980-11-14 18:06:12.480 ,1,0,0.,4.8,0.,4.8,0.,4.8,0.,4.8
1980-11-14 18:06:17.280 ,1,0,0.,4.8,0.,4.8,0.,4.8,0.,4.8
1980-11-14 18:06:22.080 ,1,0,0.,4.8,1.,4.8,0.,4.8,0.,4.8
1980-11-14 18:06:26.880 ,1,0,0.,4.8,2.,4.8,0.,4.8,0.,4.8
1980-11-14 18:06:31.680 ,1,0,0.,4.8,1.,4.8,0.,4.8,0.,4.8
1980-11-14 18:06:36.480 ,1,0,0.,4.8,1.,4.8,0.,4.8,0.,4.8
1980-11-14 18:06:41.280 ,1,0,0.,4.8,1.,4.8,1.,4.8,0.,4.8
1980-11-14 18:06:46.080 ,1,0,0.,4.8,2.,4.8,0.,4.8,0.,4.8
1980-11-14 18:06:50.880 ,1,0,0.,4.8,2.,4.8,0.,4.8,0.,4.8
1980-11-14 18:06:55.680 ,1,0,0.,4.8,1.,4.8,1.,4.8,0.,4.8
1980-11-14 18:07:00.480 ,2,0,0.,4.8,2.,4.8,0.,4.8,1.,4.8
1980-11-14 18:07:05.280 ,2,0,0.,4.8,0.,4.8,0.,4.8,0.,4.8
1980-11-14 18:07:10.080 ,2,0,0.,4.8,0.,4.8,0.,4.8,0.,4.8
1980-11-14 18:07:14.880 ,2,0,0.,4.8,0.,4.8,0.,4.8,0.,4.8
1980-11-14 18:07:19.680 ,2,0,0.,4.8,0.,4.8,0.,4.8,0.,4.8
1980-11-14 18:07:24.480 ,2,0,0.,4.8,1.,4.8,0.,4.8,0.,4.8
1980-11-14 18:07:29.280 ,2,0,0.,4.8,2.,4.8,0.,4.8,0.,4.8
1980-11-14 18:07:34.080 ,2,0,0.,4.8,0.,4.8,1.,4.8,0.,4.8
1980-11-14 18:07:38.880 ,2,0,0.,4.8,0.,4.8,0.,4.8,0.,4.8
1980-11-14 18:07:43.680 ,2,0,0.,4.8,0.,4.8,0.,4.8,0.,4.8
1980-11-14 18:07:48.480 ,3,0,0.,4.8,1.,4.8,0.,4.8,0.,4.8
1980-11-14 18:07:53.280 ,3,0,0.,4.8,1.,4.8,0.,4.8,0.,4.8
1980-11-14 18:07:58.080 ,3,0,0.,4.8,1.,4.8,0.,4.8,0.,4.8
1980-11-14 18:08:02.880 ,3,0,0.,4.8,2.,4.8,0.,4.8,0.,4.8
1980-11-14 18:08:07.680 ,3,0,0.,4.8,0.,4.8,1.,4.8,0.,4.8
1980-11-14 18:08:12.480 ,3,0,0.,4.8,0.,4.8,0.,4.8,0.,4.8
1980-11-14 18:08:17.280 ,3,0,0.,4.8,2.,4.8,0.,4.8,0.,4.8
1980-11-14 18:08:22.080 ,3,0,0.,4.8,0.,4.8,0.,4.8,0.,4.8
1980-11-14 18:08:26.880 ,3,0,0.,4.8,1.,4.8,0.,4.8,0.,4.8
1980-11-14 18:08:31.680 ,3,0,0.,4.8,2.,4.8,0.,4.8,0.,4.8
1980-11-14 18:08:36.480 ,4,0,0.,4.8,1.,4.8,1.,4.8,0.,4.8
1980-11-14 18:08:41.280 ,4,0,0.,4.8,0.,4.8,0.,4.8,0.,4.8
1980-11-14 18:08:46.080 ,4,0,0.,4.8,2.,4.8,0.,4.8,0.,4.8
1980-11-14 18:08:50.880 ,4,0,0.,4.8,1.,4.8,0.,4.8,0.,4.8
1980-11-14 18:08:55.680 ,4,0,0.,4.8,0.,4.8,0.,4.8,0.,4.8
1980-11-14 18:09:00.480 ,4,0,0.,4.8,2.,4.8,0.,4.8,0.,4.8
1980-11-14 18:09:05.280 ,4,0,0.,4.8,0.,4.8,0.,4.8,0.,4.8
1980-11-14 18:09:10.080 ,4,0,0.,4.8,0.,4.8,0.,4.8,0.,4.8
1980-11-14 18:09:14.880 ,4,0,0.,4.8,2.,4.8,1.,4.8,0.,4.8
1980-11-14 18:09:19.680 ,4,0,0.,4.8,2.,4.8,0.,4.8,0.,4.8
1980-11-14 18:09:24.480 ,5,0,0.,4.8,3.,4.8,0.,4.8,0.,4.8
1980-11-14 18:09:29.280 ,5,0,0.,4.8,0.,4.8,0.,4.8,0.,4.8
1980-11-14 18:09:34.080 ,5,0,0.,4.8,2.,4.8,0.,4.8,0.,4.8
1980-11-14 18:09:38.880 ,5,0,0.,4.8,0.,4.8,0.,4.8,0.,4.8
1980-11-14 18:09:43.680 ,5,0,0.,4.8,0.,4.8,0.,4.8,1.,4.8
1980-11-14 18:09:48.480 ,5,0,0.,4.8,1.,4.8,0.,4.8,0.,4.8
1980-11-14 18:09:53.280 ,5,0,0.,4.8,0.,4.8,0.,4.8,0.,4.8
1980-11-14 18:09:58.080 ,5,0,0.,4.8,1.,4.8,0.,4.8,0.,4.8
1980-11-14 18:10:02.880 ,5,0,0.,4.8,1.,4.8,0.,4.8,0.,4.8
1980-11-14 18:10:07.680 ,5,0,0.,4.8,2.,4.8,0.,4.8,0.,4.8
1980-11-14 18:10:12.480 ,6,0,0.,4.8,0.,4.8,0.,4.8,0.,4.8
1980-11-14 18:10:17.280 ,6,0,0.,4.8,0.,4.8,0.,4.8,0.,4.8
1980-11-14 18:10:22.080 ,6,0,0.,4.8,1.,4.8,0.,4.8,0.,4.8
1980-11-14 18:10:26.880 ,6,0,0.,4.8,3.,4.8,0.,4.8,0.,4.8
1980-11-14 18:10:31.680 ,6,0,0.,4.8,0.,4.8,0.,4.8,0.,4.8
1980-11-14 18:10:36.480 ,6,0,0.,4.8,0.,4.8,0.,4.8,0.,4.8
1980-11-14 18:10:41.280 ,6,0,0.,4.8,0.,4.8,0.,4.8,0.,4.8
1980-11-14 18:10:46.080 ,6,0,0.,4.8,0.,4.8,1.,4.8,0.,4.8
1980-11-14 18:10:50.880 ,6,0,0.,4.8,1.,4.8,0.,4.8,0.,4.8
1980-11-14 18:10:55.680 ,6,0,0.,4.8,0.,4.8,0.,4.8,0.,4.8
1980-11-14 18:11:00.480 ,7,0,0.,4.8,0.,4.8,0.,4.8,0.,4.8
1980-11-14 18:11:05.280 ,7,0,0.,4.8,3.,4.8,0.,4.8,0.,4.8
1980-11-14 18:11:10.080 ,7,0,0.,4.8,0.,4.8,0.,4.8,0.,4.8
1980-11-14 18:11:14.880 ,7,0,0.,4.8,0.,4.8,0.,4.8,0.,4.8
1980-11-14 18:11:19.680 ,7,0,0.,4.8,1.,4.8,1.,4.8,0.,4.8
1980-11-14 18:11:24.480 ,7,0,0.,4.8,0.,4.8,0.,4.8,0.,4.8
1980-11-14 18:11:29.280 ,7,0,0.,4.8,2.,4.8,2.,4.8,0.,4.8
1980-11-14 18:11:34.080 ,7,0,0.,4.8,1.,4.8,0.,4.8,0.,4.8
1980-11-14 18:11:38.880 ,7,0,0.,4.8,0.,4.8,2.,4.8,0.,4.8
1980-11-14 18:11:43.680 ,7,0,0.,4.8,0.,4.8,0.,4.8,1.,4.8
1980-11-14 18:11:48.480 ,7,0,0.,4.8,1.,4.8,0.,4.8,0.,4.8
1980-11-14 18:11:53.280 ,7,0,0.,4.8,1.,4.8,0.,4.8,0.,4.8
1980-11-14 18:11:58.080 ,7,0,0.,4.8,0.,4.8,0.,4.8,0.,4.8
1980-11-14 18:12:02.880 ,7,0,0.,4.8,0.,4.8,1.,4.8,0.,4.8
1980-11-14 18:12:07.680 ,7,0,0.,4.8,0.,4.8,0.,4.8,1.,4.8
1980-11-14 18:12:12.480 ,7,0,0.,4.8,0.,4.8,0.,4.8,0.,4.8
1980-11-14 18:12:17.280 ,7,0,0.,4.8,0.,4.8,1.,4.8,0.,4.8
1980-11-14 18:12:22.080 ,7,0,0.,4.8,0.,4.8,1.,4.8,1.,4.8
1980-11-14 18:12:26.880 ,7,0,0.,4.8,0.,4.8,0.,4.8,0.,4.8
1980-11-14 18:12:31.680 ,7,0,0.,4.8,0.,4.8,1.,4.8,0.,4.8
1980-11-14 18:12:36.480 ,6,0,0.,4.8,0.,4.8,1.,4.8,2.,4.8
1980-11-14 18:12:41.280 ,6,0,0.,4.8,1.,4.8,1.,4.8,0.,4.8
1980-11-14 18:12:46.080 ,6,0,0.,4.8,0.,4.8,0.,4.8,0.,4.8
1980-11-14 18:12:50.880 ,6,0,0.,4.8,1.,4.8,0.,4.8,0.,4.8
1980-11-14 18:12:55.680 ,6,0,0.,4.8,1.,4.8,0.,4.8,0.,4.8
1980-11-14 18:13:00.480 ,6,0,0.,4.8,1.,4.8,0.,4.8,0.,4.8
1980-11-14 18:13:05.280 ,6,0,0.,4.8,1.,4.8,0.,4.8,1.,4.8
1980-11-14 18:13:10.080 ,6,0,0.,4.8,0.,4.8,0.,4.8,0.,4.8
1980-11-14 18:13:14.880 ,6,0,0.,4.8,0.,4.8,0.,4.8,0.,4.8
1980-11-14 18:13:19.680 ,6,0,0.,4.8,0.,4.8,0.,4.8,0.,4.8
1980-11-14 18:13:24.480 ,5,0,0.,4.8,1.,4.8,0.,4.8,0.,4.8
1980-11-14 18:13:29.280 ,5,0,0.,4.8,0.,4.8,0.,4.8,0.,4.8
1980-11-14 18:13:34.080 ,5,0,0.,4.8,1.,4.8,0.,4.8,0.,4.8
1980-11-14 18:13:38.880 ,5,0,0.,4.8,0.,4.8,0.,4.8,0.,4.8
1980-11-14 18:13:43.680 ,5,0,0.,4.8,0.,4.8,1.,4.8,0.,4.8
1980-11-14 18:13:48.480 ,5,0,0.,4.8,0.,4.8,0.,4.8,0.,4.8
1980-11-14 18:13:53.280 ,5,0,0.,4.8,1.,4.8,0.,4.8,0.,4.8
1980-11-14 18:13:58.080 ,5,0,0.,4.8,0.,4.8,1.,4.8,0.,4.8
1980-11-14 18:14:02.880 ,5,0,0.,4.8,0.,4.8,1.,4.8,0.,4.8
1980-11-14 18:14:07.680 ,5,0,0.,4.8,0.,4.8,0.,4.8,0.,4.8
1980-11-14 18:14:12.480 ,4,0,0.,4.8,0.,4.8,0.,4.8,0.,4.8
1980-11-14 18:14:17.280 ,4,0,0.,4.8,0.,4.8,0.,4.8,0.,4.8
1980-11-14 18:14:22.080 ,4,0,0.,4.8,0.,4.8,0.,4.8,0.,4.8
1980-11-14 18:14:26.880 ,4,0,0.,4.8,6.,4.8,0.,4.8,0.,4.8
1980-11-14 18:14:31.680 ,4,0,0.,4.8,0.,4.8,1.,4.8,0.,4.8
1980-11-14 18:14:36.480 ,4,0,0.,4.8,2.,4.8,0.,4.8,0.,4.8
1980-11-14 18:14:41.280 ,4,0,0.,4.8,1.,4.8,0.,4.8,0.,4.8
1980-11-14 18:14:46.080 ,4,0,0.,4.8,0.,4.8,0.,4.8,0.,4.8
1980-11-14 18:14:50.880 ,4,0,0.,4.8,1.,4.8,0.,4.8,0.,4.8
1980-11-14 18:14:55.680 ,4,0,0.,4.8,0.,4.8,0.,4.8,0.,4.8
1980-11-14 18:15:00.480 ,3,0,0.,4.8,1.,4.8,0.,4.8,0.,4.8
1980-11-14 18:15:05.280 ,3,0,0.,4.8,3.,4.8,0.,4.8,0.,4.8
1980-11-14 18:15:10.080 ,3,0,0.,4.8,2.,4.8,0.,4.8,1.,4.8
1980-11-14 18:15:14.880 ,3,0,0.,4.8,2.,4.8,0.,4.8,0.,4.8
1980-11-14 18:15:19.680 ,3,0,0.,4.8,1.,4.8,0.,4.8,0.,4.8
1980-11-14 18:15:24.480 ,3,0,0.,4.8,2.,4.8,0.,4.8,0.,4.8
1980-11-14 18:15:29.280 ,3,0,0.,4.8,2.,4.8,0.,4.8,0.,4.8
1980-11-14 18:15:34.080 ,3,0,0.,4.8,4.,4.8,0.,4.8,0.,4.8
1980-11-14 18:15:38.880 ,3,0,0.,4.8,2.,4.8,0.,4.8,0.,4.8
1980-11-14 18:15:43.680 ,3,0,0.,4.8,7.,4.8,1.,4.8,0.,4.8
1980-11-14 18:15:48.480 ,2,0,0.,4.8,2.,4.8,0.,4.8,0.,4.8
1980-11-14 18:15:53.280 ,2,0,0.,4.8,5.,4.8,0.,4.8,0.,4.8
1980-11-14 18:15:58.080 ,2,0,0.,4.8,0.,4.8,1.,4.8,0.,4.8
1980-11-14 18:16:02.880 ,2,0,0.,4.8,1.,4.8,0.,4.8,0.,4.8
1980-11-14 18:16:07.680 ,2,0,0.,4.8,1.,4.8,0.,4.8,0.,4.8
1980-11-14 18:16:12.480 ,2,0,0.,4.8,0.,4.8,0.,4.8,0.,4.8
1980-11-14 18:16:17.280 ,2,0,0.,4.8,0.,4.8,1.,4.8,0.,4.8
1980-11-14 18:16:22.080 ,2,0,0.,4.8,1.,4.8,0.,4.8,0.,4.8
1980-11-14 18:16:26.880 ,2,0,0.,4.8,2.,4.8,0.,4.8,0.,4.8
1980-11-14 18:16:31.680 ,2,0,0.,4.8,4.,4.8,0.,4.8,0.,4.8
1980-11-14 18:16:36.480 ,1,0,0.,4.8,5.,4.8,0.,4.8,0.,4.8
1980-11-14 18:16:41.280 ,1,0,0.,4.8,2.,4.8,0.,4.8,0.,4.8
1980-11-14 18:16:46.080 ,1,0,0.,4.8,1.,4.8,0.,4.8,0.,4.8
1980-11-14 18:16:50.880 ,1,0,0.,4.8,0.,4.8,0.,4.8,1.,4.8
1980-11-14 18:16:55.680 ,1,0,0.,4.8,1.,4.8,1.,4.8,0.,4.8
1980-11-14 18:17:00.480 ,1,0,0.,4.8,0.,4.8,0.,4.8,0.,4.8
1980-11-14 18:17:05.280 ,1,0,0.,4.8,0.,4.8,0.,4.8,0.,4.8
1980-11-14 18:17:10.080 ,1,0,0.,4.8,1.,4.8,0.,4.8,0.,4.8
1980-11-14 18:17:14.880 ,1,0,0.,4.8,0.,4.8,0.,4.8,0.,4.8
1980-11-14 18:17:19.680 ,1,0,0.,4.8,1.,4.8,0.,4.8,0.,4.8
1980-11-14 18:17:24.470 ,0,0,0.,4.8,4.,4.8,0.,4.8,0.,4.8
1980-11-14 18:17:29.270 ,0,0,0.,4.8,0.,4.8,0.,4.8,0.,4.8
1980-11-14 18:17:34.070 ,0,0,0.,4.8,0.,4.8,0.,4.8,0.,4.8
1980-11-14 18:17:38.880 ,0,0,0.,4.8,0.,4.8,0.,4.8,0.,4.8
1980-11-14 18:17:43.670 ,0,0,0.,4.8,0.,4.8,0.,4.8,0.,4.8
1980-11-14 18:17:48.470 ,0,0,0.,4.8,2.,4.8,0.,4.8,0.,4.8
1980-11-14 18:17:53.270 ,0,0,0.,4.8,0.,4.8,0.,4.8,0.,4.8
1980-11-14 18:17:58.070 ,0,0,0.,4.8,0.,4.8,0.,4.8,0.,4.8
1980-11-14 18:18:02.880 ,0,0,0.,4.8,0.,4.8,0.,4.8,0.,4.8
1980-11-14 18:18:07.670 ,0,0,0.,4.8,1.,4.8,0.,4.8,0.,4.8
1980-11-14 18:18:12.470 ,0,0,0.,4.8,2.,4.8,0.,4.8,0.,4.8
1980-11-14 18:18:17.270 ,0,0,0.,4.8,0.,4.8,0.,4.8,0.,4.8
1980-11-14 18:18:22.070 ,0,0,0.,4.8,0.,4.8,0.,4.8,1.,4.8
1980-11-14 18:18:26.880 ,0,0,0.,4.8,2.,4.8,0.,4.8,0.,4.8
1980-11-14 18:18:31.670 ,0,0,0.,4.8,1.,4.8,0.,4.8,0.,4.8
1980-11-14 18:18:36.470 ,0,0,0.,4.8,0.,4.8,0.,4.8,0.,4.8
1980-11-14 18:18:41.270 ,0,0,0.,4.8,2.,4.8,0.,4.8,0.,4.8
1980-11-14 18:18:46.070 ,0,0,0.,4.8,3.,4.8,0.,4.8,0.,4.8
1980-11-14 18:18:50.880 ,0,0,0.,4.8,3.,4.8,0.,4.8,0.,4.8
1980-11-14 18:18:55.670 ,0,0,0.,4.8,0.,4.8,0.,4.8,0.,4.8
1980-11-14 18:19:00.470 ,1,0,0.,4.8,1.,4.8,0.,4.8,0.,4.8
1980-11-14 18:19:05.270 ,1,0,0.,4.8,0.,4.8,0.,4.8,0.,4.8
1980-11-14 18:19:10.070 ,1,0,0.,4.8,0.,4.8,0.,4.8,0.,4.8
1980-11-14 18:19:14.880 ,1,0,0.,4.8,1.,4.8,0.,4.8,0.,4.8
1980-11-14 18:19:19.670 ,1,0,0.,4.8,2.,4.8,0.,4.8,0.,4.8
1980-11-14 18:19:24.470 ,1,0,0.,4.8,0.,4.8,0.,4.8,0.,4.8
1980-11-14 18:19:29.270 ,1,0,0.,4.8,1.,4.8,0.,4.8,0.,4.8
1980-11-14 18:19:34.070 ,1,0,0.,4.8,2.,4.8,0.,4.8,0.,4.8
1980-11-14 18:19:38.880 ,1,0,0.,4.8,0.,4.8,0.,4.8,0.,4.8
1980-11-14 18:19:43.670 ,1,0,0.,4.8,1.,4.8,0.,4.8,0.,4.8
1980-11-14 18:19:48.470 ,2,0,0.,4.8,0.,4.8,0.,4.8,1.,4.8
1980-11-14 18:19:53.270 ,2,0,0.,4.8,1.,4.8,0.,4.8,0.,4.8
1980-11-14 18:19:58.070 ,2,0,0.,4.8,2.,4.8,0.,4.8,0.,4.8
1980-11-14 18:20:02.880 ,2,0,0.,4.8,0.,4.8,0.,4.8,0.,4.8
1980-11-14 18:20:07.670 ,2,0,0.,4.8,0.,4.8,0.,4.8,0.,4.8
1980-11-14 18:20:12.470 ,2,0,0.,4.8,1.,4.8,0.,4.8,0.,4.8
1980-11-14 18:20:17.270 ,2,0,0.,4.8,2.,4.8,1.,4.8,0.,4.8
1980-11-14 18:20:22.070 ,2,0,0.,4.8,0.,4.8,0.,4.8,0.,4.8
1980-11-14 18:20:26.880 ,2,0,0.,4.8,0.,4.8,1.,4.8,0.,4.8
1980-11-14 18:20:31.670 ,2,0,0.,4.8,1.,4.8,0.,4.8,0.,4.8
1980-11-14 18:20:36.470 ,3,0,0.,4.8,3.,4.8,0.,4.8,1.,4.8
1980-11-14 18:20:41.270 ,3,0,0.,4.8,1.,4.8,0.,4.8,0.,4.8
1980-11-14 18:20:46.070 ,3,0,1.,4.8,1.,4.8,0.,4.8,0.,4.8
1980-11-14 18:20:50.880 ,3,0,0.,4.8,1.,4.8,1.,4.8,0.,4.8
1980-11-14 18:20:55.670 ,3,0,0.,4.8,0.,4.8,0.,4.8,0.,4.8
1980-11-14 18:21:00.470 ,3,0,0.,4.8,1.,4.8,0.,4.8,1.,4.8
1980-11-14 18:21:05.270 ,3,0,0.,4.8,0.,4.8,0.,4.8,0.,4.8
1980-11-14 18:21:10.070 ,3,0,0.,4.8,0.,4.8,0.,4.8,0.,4.8
1980-11-14 18:21:14.880 ,3,0,0.,4.8,1.,4.8,0.,4.8,0.,4.8
1980-11-14 18:21:19.670 ,3,0,0.,4.8,1.,4.8,1.,4.8,0.,4.8
1980-11-14 18:21:24.470 ,4,0,0.,4.8,2.,4.8,0.,4.8,0.,4.8
1980-11-14 18:21:29.270 ,4,0,0.,4.8,2.,4.8,0.,4.8,0.,4.8
1980-11-14 18:21:34.070 ,4,0,0.,4.8,0.,4.8,0.,4.8,0.,4.8
1980-11-14 18:21:38.880 ,4,0,0.,4.8,1.,4.8,0.,4.8,0.,4.8
1980-11-14 18:21:43.670 ,4,0,0.,4.8,0.,4.8,0.,4.8,0.,4.8
1980-11-14 18:21:48.470 ,4,0,0.,4.8,0.,4.8,0.,4.8,0.,4.8
1980-11-14 18:21:53.270 ,4,0,0.,4.8,2.,4.8,0.,4.8,0.,4.8
1980-11-14 18:21:58.070 ,4,0,0.,4.8,1.,4.8,0.,4.8,0.,4.8
1980-11-14 18:22:02.880 ,4,0,0.,4.8,0.,4.8,0.,4.8,0.,4.8
1980-11-14 18:22:07.670 ,4,0,0.,4.8,0.,4.8,0.,4.8,0.,4.8
1980-11-14 18:22:12.470 ,5,0,0.,4.8,1.,4.8,0.,4.8,0.,4.8
1980-11-14 18:22:17.270 ,5,0,0.,4.8,2.,4.8,0.,4.8,0.,4.8
1980-11-14 18:22:22.070 ,5,0,0.,4.8,0.,4.8,0.,4.8,1.,4.8
1980-11-14 18:22:26.880 ,5,0,0.,4.8,1.,4.8,0.,4.8,0.,4.8
1980-11-14 18:22:31.670 ,5,0,0.,4.8,0.,4.8,0.,4.8,0.,4.8
1980-11-14 18:22:36.470 ,5,0,0.,4.8,0.,4.8,0.,4.8,0.,4.8
1980-11-14 18:22:41.270 ,5,0,0.,4.8,2.,4.8,0.,4.8,0.,4.8
1980-11-14 18:22:46.070 ,5,0,0.,4.8,0.,4.8,0.,4.8,0.,4.8
1980-11-14 18:22:50.880 ,5,0,0.,4.8,2.,4.8,0.,4.8,0.,4.8
1980-11-14 18:22:55.670 ,5,0,0.,4.8,1.,4.8,0.,4.8,0.,4.8
1980-11-14 18:23:00.470 ,6,0,0.,4.8,0.,4.8,0.,4.8,1.,4.8
1980-11-14 18:23:05.270 ,6,0,0.,4.8,0.,4.8,1.,4.8,0.,4.8
1980-11-14 18:23:10.070 ,6,0,0.,4.8,0.,4.8,0.,4.8,0.,4.8
1980-11-14 18:23:14.880 ,6,0,0.,4.8,0.,4.8,0.,4.8,0.,4.8
1980-11-14 18:23:19.670 ,6,0,0.,4.8,2.,4.8,0.,4.8,0.,4.8
1980-11-14 18:23:24.470 ,6,0,0.,4.8,1.,4.8,0.,4.8,1.,4.8
1980-11-14 18:23:29.270 ,6,0,0.,4.8,0.,4.8,0.,4.8,0.,4.8
1980-11-14 18:23:34.070 ,6,0,0.,4.8,0.,4.8,0.,4.8,0.,4.8
1980-11-14 18:23:38.880 ,6,0,0.,4.8,1.,4.8,0.,4.8,0.,4.8
1980-11-14 18:23:43.670 ,6,0,0.,4.8,0.,4.8,1.,4.8,0.,4.8
1980-11-14 18:23:48.470 ,7,0,0.,4.8,2.,4.8,0.,4.8,0.,4.8
1980-11-14 18:23:53.270 ,7,0,0.,4.8,2.,4.8,0.,4.8,0.,4.8
1980-11-14 18:23:58.070 ,7,0,0.,4.8,1.,4.8,0.,4.8,0.,4.8
1980-11-14 18:24:02.880 ,7,0,0.,4.8,0.,4.8,1.,4.8,0.,4.8
1980-11-14 18:24:07.670 ,7,0,0.,4.8,0.,4.8,0.,4.8,0.,4.8
1980-11-14 18:24:12.470 ,7,0,0.,4.8,0.,4.8,0.,4.8,0.,4.8
1980-11-14 18:24:17.270 ,7,0,0.,4.8,0.,4.8,0.,4.8,0.,4.8
1980-11-14 18:24:22.070 ,7,0,0.,4.8,0.,4.8,1.,4.8,0.,4.8
1980-11-14 18:24:26.880 ,7,0,0.,4.8,0.,4.8,0.,4.8,0.,4.8
1980-11-14 18:24:31.670 ,7,0,0.,4.8,0.,4.8,1.,4.8,1.,4.8
1980-11-14 18:24:36.470 ,7,0,0.,4.8,0.,4.8,1.,4.8,0.,4.8
1980-11-14 18:24:41.270 ,7,0,0.,4.8,0.,4.8,0.,4.8,0.,4.8
1980-11-14 18:24:46.070 ,7,0,0.,4.8,0.,4.8,0.,4.8,0.,4.8
1980-11-14 18:24:50.880 ,7,0,0.,4.8,1.,4.8,0.,4.8,1.,4.8
1980-11-14 18:24:55.670 ,7,0,0.,4.8,0.,4.8,0.,4.8,0.,4.8
1980-11-14 18:25:00.470 ,7,0,0.,4.8,0.,4.8,0.,4.8,0.,4.8
1980-11-14 18:25:05.270 ,7,0,0.,4.8,0.,4.8,0.,4.8,0.,4.8
1980-11-14 18:25:10.070 ,7,0,0.,4.8,0.,4.8,1.,4.8,1.,4.8
1980-11-14 18:25:14.880 ,7,0,0.,4.8,0.,4.8,1.,4.8,1.,4.8
1980-11-14 18:25:19.670 ,7,0,0.,4.8,0.,4.8,1.,4.8,0.,4.8
1980-11-14 18:25:24.470 ,6,0,0.,4.8,0.,4.8,2.,4.8,1.,4.8
1980-11-14 18:25:29.270 ,6,0,0.,4.8,0.,4.8,0.,4.8,0.,4.8
1980-11-14 18:25:34.070 ,6,0,0.,4.8,1.,4.8,0.,4.8,0.,4.8
1980-11-14 18:25:38.880 ,6,0,0.,4.8,0.,4.8,0.,4.8,0.,4.8
1980-11-14 18:25:43.670 ,6,0,0.,4.8,0.,4.8,0.,4.8,1.,4.8
1980-11-14 18:25:48.470 ,6,0,0.,4.8,0.,4.8,0.,4.8,0.,4.8
1980-11-14 18:25:53.270 ,6,0,0.,4.8,1.,4.8,0.,4.8,0.,4.8
1980-11-14 18:25:58.070 ,6,0,0.,4.8,1.,4.8,0.,4.8,0.,4.8
1980-11-14 18:26:02.880 ,6,0,0.,4.8,0.,4.8,0.,4.8,0.,4.8
1980-11-14 18:26:07.670 ,6,0,0.,4.8,0.,4.8,0.,4.8,0.,4.8
1980-11-14 18:26:12.470 ,5,0,0.,4.8,1.,4.8,0.,4.8,0.,4.8
1980-11-14 18:26:17.270 ,5,0,0.,4.8,1.,4.8,0.,4.8,0.,4.8
1980-11-14 18:26:22.070 ,5,0,0.,4.8,0.,4.8,0.,4.8,0.,4.8
1980-11-14 18:26:26.880 ,5,0,0.,4.8,1.,4.8,0.,4.8,0.,4.8
1980-11-14 18:26:31.670 ,5,0,0.,4.8,0.,4.8,0.,4.8,0.,4.8
1980-11-14 18:26:36.470 ,5,0,0.,4.8,0.,4.8,0.,4.8,0.,4.8
1980-11-14 18:26:41.270 ,5,0,0.,4.8,1.,4.8,0.,4.8,0.,4.8
1980-11-14 18:26:46.070 ,5,0,0.,4.8,0.,4.8,0.,4.8,0.,4.8
1980-11-14 18:26:50.880 ,5,0,0.,4.8,0.,4.8,0.,4.8,0.,4.8
1980-11-14 18:26:55.670 ,5,0,0.,4.8,0.,4.8,1.,4.8,0.,4.8
1980-11-14 18:27:00.470 ,4,0,0.,4.8,1.,4.8,0.,4.8,0.,4.8
1980-11-14 18:27:05.270 ,4,0,0.,4.8,1.,4.8,0.,4.8,0.,4.8
1980-11-14 18:27:10.070 ,4,0,0.,4.8,1.,4.8,0.,4.8,0.,4.8
1980-11-14 18:27:14.880 ,4,0,0.,4.8,0.,4.8,1.,4.8,0.,4.8
1980-11-14 18:27:19.670 ,4,0,0.,4.8,0.,4.8,0.,4.8,0.,4.8
1980-11-14 18:27:24.470 ,4,0,0.,4.8,0.,4.8,0.,4.8,0.,4.8
1980-11-14 18:27:29.270 ,4,0,0.,4.8,0.,4.8,0.,4.8,0.,4.8
1980-11-14 18:27:34.070 ,4,0,0.,4.8,1.,4.8,0.,4.8,0.,4.8
1980-11-14 18:27:38.880 ,4,0,0.,4.8,0.,4.8,0.,4.8,0.,4.8
1980-11-14 18:27:43.670 ,4,0,0.,4.8,2.,4.8,0.,4.8,0.,4.8
1980-11-14 18:27:48.470 ,3,0,0.,4.8,0.,4.8,0.,4.8,0.,4.8
1980-11-14 18:27:53.270 ,3,0,0.,4.8,0.,4.8,1.,4.8,0.,4.8
1980-11-14 18:27:58.070 ,3,0,0.,4.8,3.,4.8,0.,4.8,0.,4.8
1980-11-14 18:28:02.880 ,3,0,0.,4.8,1.,4.8,0.,4.8,0.,4.8
1980-11-14 18:28:07.670 ,3,0,0.,4.8,1.,4.8,0.,4.8,0.,4.8
1980-11-14 18:28:12.470 ,3,0,0.,4.8,0.,4.8,0.,4.8,0.,4.8
1980-11-14 18:28:17.270 ,3,0,0.,4.8,1.,4.8,0.,4.8,0.,4.8
1980-11-14 18:28:22.070 ,3,0,0.,4.8,0.,4.8,0.,4.8,1.,4.8
1980-11-14 18:28:26.880 ,3,0,0.,4.8,0.,4.8,0.,4.8,1.,4.8
1980-11-14 18:28:31.670 ,3,0,0.,4.8,1.,4.8,0.,4.8,0.,4.8
1980-11-14 18:28:36.470 ,2,0,0.,4.8,1.,4.8,1.,4.8,0.,4.8
1980-11-14 18:28:41.270 ,2,0,0.,4.8,1.,4.8,0.,4.8,0.,4.8
1980-11-14 18:28:46.070 ,2,0,0.,4.8,0.,4.8,0.,4.8,0.,4.8
1980-11-14 18:28:50.880 ,2,0,0.,4.8,1.,4.8,0.,4.8,0.,4.8
1980-11-14 18:28:55.670 ,2,0,0.,4.8,1.,4.8,0.,4.8,0.,4.8
1980-11-14 18:29:00.470 ,2,0,0.,4.8,0.,4.8,0.,4.8,0.,4.8
1980-11-14 18:29:05.270 ,2,0,0.,4.8,2.,4.8,0.,4.8,0.,4.8
1980-11-14 18:29:10.070 ,2,0,0.,4.8,1.,4.8,0.,4.8,0.,4.8
1980-11-14 18:29:14.880 ,2,0,0.,4.8,3.,4.8,0.,4.8,0.,4.8
1980-11-14 18:29:19.670 ,2,0,0.,4.8,4.,4.8,0.,4.8,0.,4.8
1980-11-14 18:29:24.470 ,1,0,0.,4.8,0.,4.8,0.,4.8,0.,4.8
1980-11-14 18:29:29.270 ,1,0,0.,4.8,1.,4.8,0.,4.8,0.,4.8
1980-11-14 18:29:34.070 ,1,0,0.,4.8,0.,4.8,1.,4.8,0.,4.8
1980-11-14 18:29:38.880 ,1,0,0.,4.8,1.,4.8,1.,4.8,1.,4.8
1980-11-14 18:29:43.670 ,1,0,0.,4.8,0.,4.8,0.,4.8,0.,4.8
1980-11-14 18:29:48.470 ,1,0,0.,4.8,0.,4.8,0.,4.8,1.,4.8
1980-11-14 18:29:53.270 ,1,0,0.,4.8,0.,4.8,0.,4.8,0.,4.8
1980-11-14 18:29:58.070 ,1,0,0.,4.8,1.,4.8,0.,4.8,0.,4.8
1980-11-14 18:30:02.880 ,1,0,0.,4.8,1.,4.8,0.,4.8,0.,4.8
1980-11-14 18:30:07.670 ,1,0,0.,4.8,0.,4.8,0.,4.8,0.,4.8
1980-11-14 18:30:12.470 ,0,0,0.,4.8,0.,4.8,0.,4.8,0.,4.8
1980-11-14 18:30:17.270 ,0,0,0.,4.8,0.,4.8,0.,4.8,0.,4.8
1980-11-14 18:30:22.070 ,0,0,0.,4.8,0.,4.8,0.,4.8,0.,4.8
1980-11-14 18:30:26.880 ,0,0,0.,4.8,0.,4.8,0.,4.8,0.,4.8
1980-11-14 18:30:31.670 ,0,0,0.,4.8,0.,4.8,0.,4.8,0.,4.8
1980-11-14 18:30:36.470 ,0,0,0.,4.8,1.,4.8,0.,4.8,0.,4.8
1980-11-14 18:30:41.270 ,0,0,0.,4.8,0.,4.8,1.,4.8,0.,4.8
1980-11-14 18:30:46.070 ,0,0,0.,4.8,0.,4.8,0.,4.8,0.,4.8
1980-11-14 18:30:50.880 ,0,0,0.,4.8,2.,4.8,0.,4.8,1.,4.8
1980-11-14 18:30:55.670 ,0,0,0.,4.8,1.,4.8,0.,4.8,1.,4.8
1980-11-14 18:31:00.470 ,0,0,0.,4.8,0.,4.8,0.,4.8,0.,4.8
1980-11-14 18:31:05.270 ,0,0,0.,4.8,0.,4.8,0.,4.8,0.,4.8
1980-11-14 18:31:10.070 ,0,0,0.,4.8,0.,4.8,2.,4.8,0.,4.8
1980-11-14 18:31:14.880 ,0,0,0.,4.8,0.,4.8,0.,4.8,1.,4.8
1980-11-14 18:31:19.670 ,0,0,0.,4.8,1.,4.8,0.,4.8,0.,4.8
1980-11-14 18:31:24.470 ,0,0,0.,4.8,0.,4.8,0.,4.8,0.,4.8
1980-11-14 18:31:29.270 ,0,0,0.,4.8,1.,4.8,0.,4.8,0.,4.8
1980-11-14 18:31:34.070 ,0,0,0.,4.8,0.,4.8,0.,4.8,0.,4.8
1980-11-14 18:31:38.880 ,0,0,0.,4.8,1.,4.8,0.,4.8,1.,4.8
1980-11-14 18:31:43.670 ,0,0,0.,4.8,0.,4.8,0.,4.8,0.,4.8
1980-11-14 18:31:48.470 ,1,0,0.,4.8,0.,4.8,0.,4.8,0.,4.8
1980-11-14 18:31:53.270 ,1,0,0.,4.8,0.,4.8,0.,4.8,0.,4.8
1980-11-14 18:31:58.070 ,1,0,0.,4.8,0.,4.8,0.,4.8,0.,4.8
1980-11-14 18:32:02.880 ,1,0,0.,4.8,1.,4.8,0.,4.8,0.,4.8
1980-11-14 18:32:07.670 ,1,0,0.,4.8,1.,4.8,0.,4.8,0.,4.8
1980-11-14 18:32:12.470 ,1,0,0.,4.8,2.,4.8,0.,4.8,0.,4.8
1980-11-14 18:32:17.270 ,1,0,0.,4.8,1.,4.8,0.,4.8,1.,4.8
1980-11-14 18:32:22.070 ,1,0,0.,4.8,1.,4.8,0.,4.8,0.,4.8
1980-11-14 18:32:26.880 ,1,0,0.,4.8,0.,4.8,0.,4.8,0.,4.8
1980-11-14 18:32:31.670 ,1,0,0.,4.8,0.,4.8,0.,4.8,0.,4.8
1980-11-14 18:32:36.470 ,2,0,0.,4.8,3.,4.8,0.,4.8,0.,4.8
1980-11-14 18:32:41.270 ,2,0,0.,4.8,2.,4.8,0.,4.8,1.,4.8
1980-11-14 18:32:46.070 ,2,0,0.,4.8,1.,4.8,0.,4.8,0.,4.8
1980-11-14 18:32:50.880 ,2,0,0.,4.8,3.,4.8,0.,4.8,0.,4.8
1980-11-14 18:32:55.670 ,2,0,0.,4.8,0.,4.8,1.,4.8,0.,4.8
1980-11-14 18:33:00.470 ,2,0,0.,4.8,2.,4.8,0.,4.8,0.,4.8
1980-11-14 18:33:05.270 ,2,0,0.,4.8,1.,4.8,0.,4.8,0.,4.8